Regional Weather Roundup
Issued by NWS

Home | Current Version | Previous Version | Graphics & Text | Print | Product List | Glossary Off
Versions: 1 2 3 4 5 6 7 8 9 10 11 12 13 14 15 16 17 18 19 20 21 22 23 24 25 26 27 28 29 30 31 32 33 34 35 36 37 38 39 40 41 42 43 44 45 46 47 48 49

000
ASUS43 KDMX 010307
RWRIA

WEATHER ROUNDUP FOR IOWA
NATIONAL WEATHER SERVICE DES MOINES IA
1000 PM CDT MON AUG 31 2015

NOTE: "FAIR" INDICATES FEW OR NO CLOUDS BELOW 12,000 FEET WITH NO
SIGNIFICANT WEATHER AND/OR OBSTRUCTIONS TO VISIBILITY.

* - THESE STATIONS ARE NOT NWS STATIONS...THUS NOT UNDER NWS
QUALITY CONTROL.  THEY ALSO DO NOT REPORT WEATHER SUCH
AS PRECIPITATION OR FOG.

IAZ001>003-012>014-020>022-031>034-043>046-010400-
   NORTHWEST IOWA

CITY           SKY/WX    TMP DP  RH WIND       PRES   REMARKS
CARROLL *      CLOUDY    66  66 100 S3        29.95R
CHEROKEE *     CLEAR     69  69  98 S3        29.92S
DENISON *      CLOUDY    70  68  94 SE5       29.92S
LE MARS *      CLEAR     72  68  88 CALM      29.92R
ORANGE CITY *  CLEAR     72  68  88 S5        29.92S
SHELDON *      PTCLDY    70  68  94 S6        29.91R
SIOUX CITY     CLEAR     73  67  81 SE8       29.90R
SPENCER        CLEAR     70  65  84 S7        29.93S HAZE
STORM LAKE *   CLEAR     70  68  94 S8        29.95S
$$

IAZ055>058-069>071-079>083-090>094-010400-
   SOUTHWEST IOWA

CITY           SKY/WX    TMP DP  RH WIND       PRES   REMARKS
ATLANTIC *     CLOUDY    68  68 100 CALM      29.96R
AUDUBON *      FOG       64  63  94 CALM      29.97S VSB 1/4
CLARINDA *     CLEAR     72  70  94 CALM      29.97R
COUNCIL BLFS *   N/A     73  68  83 SE6       29.94S
CRESTON *      CLEAR     72  68  88 SE6       29.99R
LAMONI         CLEAR     77  68  73 SE7       29.98R
RED OAK *      CLEAR     72  68  88 CALM      29.95R
SHENANDOAH *   CLEAR     73  70  88 SE6       29.94R
$$

IAZ047>049-059>061-072>074-084-010400-
   CENTRAL IOWA

CITY           SKY/WX    TMP DP  RH WIND       PRES   REMARKS
AMES           PTCLDY    71  69  93 S3        29.95R FOG
ANKENY *       PTCLDY    72  72 100 CALM      29.95R
CHARITON *     CLEAR     73  72  94 S6        29.98R
DES MOINES     PTCLDY    77  71  82 S6        29.95R
GRINNELL*      CLEAR     73  70  88 S5        29.98S
KNOXVILLE *    MOCLDY    75  70  83 S3        29.96R
MARSHALLTOWN   CLEAR     74  70  87 SE6       29.96R
PELLA *        PTCLDY    74  73  94 S3        29.98R
PERRY *          N/A     71  71  97 SE3       29.96R FOG
$$

IAZ004>006-015-016-023>025-035-036-010400-
   NORTH CENTRAL IOWA

CITY           SKY/WX    TMP DP  RH WIND       PRES   REMARKS
ALGONA *       CLEAR     70  68  94 S5        29.96R
CLARION *      MOCLDY    70  68  94 S5        29.96R FOG
ESTHERVILLE    CLEAR     67  65  93 S7        29.93S
FORT DODGE *   CLEAR     70  64  83 CALM      29.96S
MASON CITY     PTCLDY    70  69  97 S3        29.97R FOG
FOREST CITY *    N/A     68  68 100 CALM      29.96R FOG
IOWA FALLS *     N/A     73  70  88 S3        29.97R
$$

IAZ007>011-017>019-026>030-037>042-050>054-066-010400-
   NORTHEAST IOWA

CITY           SKY/WX    TMP DP  RH WIND       PRES   REMARKS
CEDAR RAPIDS   PTCLDY    74  73  97 SE3       29.97R
CHARLES CITY * MOCLDY    75  75 100 SE8       29.97R
CLINTON *      CLEAR     75  72  88 SE8       30.03R
DECORAH *      MOCLDY    73  72  94 S6G14     29.97S
DUBUQUE        CLEAR     74  71  91 SE10      30.01R
MONTICELLO *   CLEAR     75  73  94 SE6       29.98S
OELWEIN *      MOCLDY    73  73 100 SE6       29.99R FOG
WATERLOO       CLEAR     76  72  87 S7        29.95R
$$

IAZ064-065-067-068-078-010400-
   EAST CENTRAL IOWA

CITY           SKY/WX    TMP DP  RH WIND       PRES   REMARKS
DAVENPORT      CLEAR     75  71  87 SE6       30.00R
IOWA CITY      PTCLDY    75  72  90 SE5       29.98R
MT. PLEASANT * PTCLDY    77  69  76 S6        29.99R
MUSCATINE *    CLOUDY    75  72  88 CALM      29.98S
QUAD CITIES    CLEAR     76  71  85 SE6       29.99R
$$

IAZ062-063-075>077-085>089-095>099-010400-
   SOUTHEAST IOWA

CITY           SKY/WX    TMP DP  RH WIND       PRES   REMARKS
BURLINGTON     CLEAR     79  73  82 S7        29.99R HX  82
FAIRFIELD *    PTCLDY    73  70  88 SE5       29.98R
FORT MADISON * CLEAR     77  73  88 S5        30.00S
KEOKUK *       CLEAR     79  73  83 SE6       29.99R HX  82
OSKALOOSA *      N/A     72  69  90 S3        29.98R
CENTERVILLE *    N/A     72  70  94 S3        30.00S
OTTUMWA        CLEAR     74  71  91 S6        29.96R
WASHINGTON *     N/A    N/A N/A N/A MISG        N/A
$$

ABBREVIATIONS USED IN REMARKS
   TC - TEMPERATURES IN CELSIUS
  WCI - WIND CHILL INDEX
   HX - HEAT INDEX
  VSB - VISIBILITY
$$




USA.gov is the U.S. government's official web portal to all federal, state and local government web resources and services.